User: anonymous   Login
Location: Caltech
(34.1382°N, 118.1253°W)
Time: 06:00:01
(UTC-08:00)
Language:

AO-Echo - Orbit

View from above orbital plane
View from above orbital plane
View from above satellite
View from above satellite

Ground track
Ground track

The orbit data is extracted from the following two-line orbital elements,

1 28375U 04025K   17019.85590301  .00000037  00000-0  24038-4 0  9996
2 28375  98.3483 316.4838 0082892  11.6759 348.6328 14.41820637660443
Epoch (UTC): 19 January 2017 20:32:30
Eccentricity: 0.0082892
inclination: 98.3483°
perigee height: 693 km
apogee height: 811 km
right ascension of ascending node: 316.4838°
argument of perigee: 11.6759°
revolutions per day: 14.41820637
mean anomaly at epoch: 348.6328°
orbit number at epoch: 66044

The dashed part of the orbit path shows where the satellite is in the earth's shadow,  

DLR